When you browse on this site, cookies collect data to enhance your experience and personalize the content and advertising you see.
Visit our Privacy Policy to learn more. By continuing to use the site, you agree to this use of cookies and data.
  • In Romania
  • List of Countries
  • For 7 days
  • Water Temperature
  • Weather Map
  • Weather Widgets
  • user-avatar
    Login

    Hourly Weather Capri

    Today, 14 November, Thursday

    Time Temperature Precipitation Wind Pressure Humidity
    00:00 +17°C° 0.1 mm 5 mps 741 mmHg 61%
    01:00 +16°C° 0.1 mm 5 mps 741 mmHg 64%
    02:00 +16°C° 0.9 mm 5 mps 741 mmHg 67%
    03:00 +16°C° 0.9 mm 6 mps 741 mmHg 70%
    04:00 +16°C° 0.9 mm 6 mps 741 mmHg 72%
    05:00 +16°C° 0.6 mm 6 mps 741 mmHg 70%
    06:00 +16°C° 0.6 mm 5 mps 741 mmHg 67%
    07:00 +16°C° 0.6 mm 5 mps 741 mmHg 65%
    08:00 +16°C° 0.4 mm 6 mps 741 mmHg 65%
    09:00 +17°C° 0.4 mm 6 mps 742 mmHg 64%
    10:00 +17°C° 0.4 mm 6 mps 742 mmHg 64%
    11:00 +17°C° 0.1 mm 6 mps 742 mmHg 63%
    12:00 +17°C° 0.1 mm 6 mps 741 mmHg 63%
    13:00 +17°C° 0.1 mm 5 mps 741 mmHg 62%
    14:00 +17°C° 0.1 mm 6 mps 741 mmHg 63%
    15:00 +17°C° 0.1 mm 6 mps 741 mmHg 64%
    16:00 +17°C° 0.1 mm 6 mps 741 mmHg 66%
    17:00 +17°C° 0 mm 6 mps 741 mmHg 65%
    18:00 +17°C° 0 mm 7 mps 741 mmHg 65%
    19:00 +17°C° 0 mm 7 mps 742 mmHg 65%
    20:00 +17°C° 0 mm 8 mps 742 mmHg 67%
    21:00 +17°C° 0 mm 8 mps 742 mmHg 68%
    22:00 +17°C° 0 mm 9 mps 742 mmHg 70%
    23:00 +17°C° 0.3 mm 9 mps 742 mmHg 72%

    Tomorrow, 15 November, Friday

    Time Temperature Precipitation Wind Pressure Humidity
    00:00 +17°C° 0.3 mm 9 mps 742 mmHg 74%
    01:00 +17°C° 0.3 mm 9 mps 742 mmHg 76%
    02:00 +17°C° 0.1 mm 9 mps 742 mmHg 75%
    03:00 +17°C° 0.1 mm 8 mps 742 mmHg 73%
    04:00 +17°C° 0.1 mm 8 mps 742 mmHg 72%
    05:00 +17°C° 0 mm 8 mps 742 mmHg 72%
    06:00 +17°C° 0 mm 8 mps 742 mmHg 72%
    07:00 +17°C° 0 mm 9 mps 742 mmHg 72%
    08:00 +17°C° 0 mm 9 mps 742 mmHg 72%
    09:00 +17°C° 0 mm 10 mps 742 mmHg 71%
    10:00 +17°C° 0 mm 11 mps 742 mmHg 71%
    11:00 +17°C° 0 mm 11 mps 741 mmHg 71%
    12:00 +18°C° 0 mm 11 mps 741 mmHg 71%
    13:00 +18°C° 0 mm 10 mps 741 mmHg 71%
    14:00 +18°C° 0 mm 10 mps 741 mmHg 71%
    15:00 +18°C° 0 mm 10 mps 741 mmHg 72%
    16:00 +18°C° 0 mm 10 mps 741 mmHg 73%
    17:00 +18°C° 0.2 mm 10 mps 741 mmHg 73%
    18:00 +18°C° 0.2 mm 11 mps 742 mmHg 74%
    19:00 +19°C° 0.2 mm 11 mps 742 mmHg 75%
    20:00 +19°C° 0.3 mm 10 mps 742 mmHg 75%
    21:00 +19°C° 0.3 mm 10 mps 743 mmHg 75%
    22:00 +19°C° 0.3 mm 10 mps 743 mmHg 75%
    23:00 +19°C° 0.3 mm 9 mps 743 mmHg 75%

    Day after tomorrow, 16 November, Saturday

    Time Temperature Precipitation Wind Pressure Humidity
    00:00 +19°C° 0.3 mm 9 mps 743 mmHg 75%
    01:00 +18°C° 0.3 mm 9 mps 744 mmHg 75%
    02:00 +18°C° 0.4 mm 9 mps 744 mmHg 75%
    03:00 +18°C° 0.4 mm 9 mps 743 mmHg 74%
    04:00 +18°C° 0.4 mm 9 mps 743 mmHg 74%
    05:00 +18°C° 0.4 mm 9 mps 743 mmHg 74%
    06:00 +18°C° 0.4 mm 9 mps 744 mmHg 75%
    07:00 +18°C° 0.4 mm 8 mps 744 mmHg 75%
    08:00 +18°C° 0.3 mm 9 mps 744 mmHg 75%
    09:00 +18°C° 0.3 mm 10 mps 744 mmHg 75%
    10:00 +18°C° 0.3 mm 11 mps 744 mmHg 75%
    11:00 +18°C° 0.2 mm 11 mps 743 mmHg 75%
    12:00 +18°C° 0.2 mm 11 mps 743 mmHg 75%
    13:00 +18°C° 0.2 mm 12 mps 742 mmHg 75%
    14:00 +19°C° 0 mm 12 mps 742 mmHg 74%
    15:00 +19°C° 0 mm 13 mps 741 mmHg 73%
    16:00 +19°C° 0 mm 13 mps 740 mmHg 71%
    17:00 +19°C° 0 mm 14 mps 740 mmHg 71%
    18:00 +19°C° 0 mm 14 mps 740 mmHg 71%
    19:00 +19°C° 0 mm 15 mps 740 mmHg 71%
    20:00 +19°C° 0 mm 15 mps 740 mmHg 72%
    21:00 +19°C° 0 mm 16 mps 740 mmHg 73%
    22:00 +19°C° 0 mm 16 mps 740 mmHg 73%
    23:00 +19°C° 0 mm 16 mps 740 mmHg 74%

    17 November, Sunday

    Time Temperature Precipitation Wind Pressure Humidity
    00:00 +19°C° 0 mm 15 mps 739 mmHg 74%
    01:00 +18°C° 0 mm 15 mps 739 mmHg 75%
    02:00 +18°C° 0.4 mm 15 mps 739 mmHg 75%
    03:00 +18°C° 0.4 mm 16 mps 739 mmHg 75%
    04:00 +18°C° 0.4 mm 16 mps 739 mmHg 75%
    05:00 +17°C° 2.1 mm 14 mps 739 mmHg 75%
    06:00 +15°C° 2.1 mm 13 mps 739 mmHg 75%
    07:00 +14°C° 2.1 mm 11 mps 739 mmHg 75%
    08:00 +14°C° 0.3 mm 11 mps 740 mmHg 73%
    09:00 +14°C° 0.3 mm 10 mps 740 mmHg 70%
    10:00 +15°C° 0.3 mm 9 mps 741 mmHg 68%
    11:00 +15°C° 0 mm 9 mps 741 mmHg 67%
    12:00 +15°C° 0 mm 8 mps 741 mmHg 66%
    13:00 +15°C° 0 mm 8 mps 741 mmHg 65%
    14:00 +15°C° 0.3 mm 8 mps 741 mmHg 65%
    15:00 +15°C° 0.3 mm 7 mps 741 mmHg 66%
    16:00 +15°C° 0.3 mm 7 mps 741 mmHg 67%
    17:00 +15°C° 0.6 mm 8 mps 741 mmHg 66%
    18:00 +15°C° 0.6 mm 8 mps 742 mmHg 65%
    19:00 +15°C° 0.6 mm 8 mps 742 mmHg 64%
    20:00 +13°C° 0.2 mm 8 mps 742 mmHg 65%
    21:00 +13°C° 0.2 mm 8 mps 742 mmHg 66%
    22:00 +13°C° 0.2 mm 8 mps 743 mmHg 67%
    23:00 +14°C° 0.4 mm 7 mps 743 mmHg 66%

    18 November, Monday

    Time Temperature Precipitation Wind Pressure Humidity
    00:00 +14°C° 0.4 mm 7 mps 743 mmHg 65%
    01:00 +14°C° 0.4 mm 6 mps 743 mmHg 64%
    02:00 +14°C° 0 mm 6 mps 744 mmHg 62%
    03:00 +15°C° 0 mm 6 mps 744 mmHg 60%
    04:00 +15°C° 0 mm 6 mps 744 mmHg 58%
    05:00 +15°C° 0 mm 6 mps 744 mmHg 57%
    06:00 +15°C° 0 mm 6 mps 744 mmHg 57%
    07:00 +15°C° 0 mm 6 mps 745 mmHg 56%
    08:00 +15°C° 0.4 mm 7 mps 745 mmHg 61%
    09:00 +15°C° 0.4 mm 7 mps 745 mmHg 66%
    10:00 +15°C° 0.4 mm 8 mps 746 mmHg 70%
    11:00 +15°C° 0.5 mm 9 mps 745 mmHg 70%
    12:00 +15°C° 0.5 mm 9 mps 745 mmHg 69%
    13:00 +15°C° 0.5 mm 9 mps 745 mmHg 69%
    14:00 +15°C° 0.8 mm 9 mps 745 mmHg 68%
    15:00 +15°C° 0.8 mm 8 mps 745 mmHg 66%
    16:00 +15°C° 0.8 mm 8 mps 745 mmHg 65%
    17:00 +15°C° 0.7 mm 8 mps 745 mmHg 65%
    18:00 +15°C° 0.7 mm 8 mps 745 mmHg 64%
    19:00 +15°C° 0.7 mm 7 mps 745 mmHg 63%
    20:00 +15°C° 0.7 mm 8 mps 745 mmHg 64%
    21:00 +15°C° 0.7 mm 9 mps 745 mmHg 65%
    22:00 +15°C° 0.7 mm 9 mps 745 mmHg 66%
    23:00 +15°C° 0.9 mm 9 mps 745 mmHg 65%

    19 November, Tuesday

    Time Temperature Precipitation Wind Pressure Humidity
    00:00 +15°C° 0.9 mm 8 mps 745 mmHg 63%
    01:00 +16°C° 0.9 mm 8 mps 744 mmHg 62%
    02:00 +15°C° 1 mm 8 mps 744 mmHg 64%
    03:00 +15°C° 1 mm 8 mps 744 mmHg 65%
    04:00 +15°C° 1 mm 8 mps 744 mmHg 66%
    05:00 +15°C° 1.5 mm 8 mps 744 mmHg 66%
    06:00 +15°C° 1.5 mm 7 mps 744 mmHg 65%
    07:00 +16°C° 1.5 mm 7 mps 744 mmHg 65%
    08:00 +15°C° 1.1 mm 7 mps 744 mmHg 66%
    09:00 +15°C° 1.1 mm 7 mps 744 mmHg 67%
    10:00 +15°C° 1.1 mm 6 mps 745 mmHg 68%
    11:00 +15°C° 1 mm 7 mps 745 mmHg 70%
    12:00 +15°C° 1 mm 7 mps 745 mmHg 71%
    13:00 +15°C° 1 mm 8 mps 744 mmHg 72%
    14:00 +15°C° 0.6 mm 8 mps 745 mmHg 73%
    15:00 +15°C° 0.6 mm 9 mps 745 mmHg 73%
    16:00 +15°C° 0.6 mm 9 mps 745 mmHg 73%
    17:00 +15°C° 0.2 mm 9 mps 746 mmHg 73%
    18:00 +15°C° 0.2 mm 9 mps 746 mmHg 72%
    19:00 +15°C° 0.2 mm 8 mps 746 mmHg 72%
    20:00 +15°C° 0.1 mm 8 mps 747 mmHg 71%
    21:00 +15°C° 0.1 mm 8 mps 747 mmHg 71%
    22:00 +15°C° 0.1 mm 7 mps 748 mmHg 71%
    23:00 +15°C° 0.1 mm 7 mps 748 mmHg 70%
    Show more